www.pogodaiklimat.ru

Погода и климат >> Архив погоды >> Австралия >> Южная Австралия >> Кубер-Педи


ПОГОДА в Кубер-Педи

  • Прогноз погоды в Кубер-Педи
  • Монитор погоды в Кубер-Педи

АРХИВ ПОГОДЫ в Кубер-Педи

Время (UTC), дата Ветер
(напр.,м/с)
 
Видим.   Явления Облачность Т
(С)
Тd
(С)
f
(%)
Тe
(С)
Тes
(С)
Комфортность P
(гПа)
Po
(гПа)
Тmin
(С)
Tmax
(С)
R
(мм)
R24
(мм)
S
(см)
01 18.03 В 3 <100 м 1/0
[]
+32.8 +0.8 13 +30 +30 жарко 1015.2 989.4 +22.7
02 18.03 СВ 3 н/о н/о +34.3 -0.4 11 +31 +31 жарко 1014.6 988.8
03 18.03 СВ 3 н/о н/о +35.1 -1.1 10 +31 +31 жарко 1013.8 988.1
04 18.03 СВ 2 н/о н/о +35.8 -0.5 10 +32 +32 жарко 1012.8 987.1
05 18.03 ЮВ 3 н/о н/о +36.0 +0.9 11 +32 +32 жарко 1011.5 985.8
06 18.03 Ю 7 н/о н/о +36.3 +1.2 11 +33 +33 жарко 1011.0 985.3
07 18.03 ЮВ 4 н/о 1/0
[]
+36.4 +1.2 11 +33 +33 жарко 1011.0 985.3
08 18.03 Ю 6 н/о н/о +35.7 +1.9 12 +32 +32 жарко 1011.1 985.4
09 18.03 Ю 6 н/о н/о +34.8 +2.3 13 +32 +32 жарко 1011.3 985.6
10 18.03 Ю 5 н/о 1/0
[]
+33.7 +2.5 14 +31 +31 жарко 1012.0 986.3
11 18.03 Ю 7 н/о н/о +32.3 +4.2 17 +30 +30 жарко 1012.9 987.2
12 18.03 Ю 5 н/о н/о +31.1 +4.8 19 +29 +29 жарко 1013.4 987.7
13 18.03 Ю 6 н/о н/о +30.4 +5.6 21 +29 +29 жарко 1013.4 987.7 +37.9
14 18.03 Ю 5 н/о н/о +29.0 +5.8 23 +28 +28 жарко 1013.2 987.5
15 18.03 Ю 7 н/о н/о +28.3 +7.5 27 +28 +28 жарко 1012.8 987.1
16 18.03 Ю 5 н/о 8/0
[]
+27.1 +9.0 32 +27 +27 жарко 1012.6 986.9
17 18.03 Ю 5 н/о н/о +25.5 +8.9 35 +26 +26 жарко 1012.9 987.2
18 18.03 Ю 7 н/о н/о +24.6 +9.0 37 +25 +25 комфорт 1013.0 987.3
19 18.03 Ю 5 н/о 6/0
[]
+23.7 +8.9 39 +24 +24 комфорт 1013.1 987.4
20 18.03 Ю 6 н/о н/о +22.6 +10.1 45 +24 +24 комфорт 1013.2 987.5
21 18.03 Ю 5 н/о н/о +21.8 +11.8 53 +24 +24 комфорт 1013.8 988.1
22 18.03 Ю 5 н/о 1/0
[]
+22.7 +11.1 48 +25 +25 комфорт 1014.3 988.5
23 18.03 Ю 7 н/о н/о +24.9 +11.5 43 +26 +26 жарко 1015.1 989.3
00 19.03 ЮЗ 6 н/о н/о +26.2 +11.5 40 +27 +27 жарко 1015.6 989.8
01 19.03 Ю 6 н/о 9/0
[]
+28.1 +11.2 35 +29 +29 жарко 1015.3 989.5 +21.8
02 19.03 Ю 6 н/о н/о +31.3 +10.1 27 +31 +31 жарко 1014.7 988.9
03 19.03 Ю 5 н/о н/о +32.2 +9.7 25 +32 +32 жарко 1013.9 988.2
04 19.03 Ю 5 н/о н/о +33.3 +8.7 22 +32 +32 жарко 1012.9 987.2
05 19.03 Ю 6 н/о н/о +34.7 +6.9 18 +33 +33 жарко 1012.1 986.4
06 19.03 ЮЗ 6 н/о н/о +35.7 +6.0 16 +33 +33 жарко 1011.5 985.8
07 19.03 Ю 5 н/о 10/0
[]
+34.6 +4.2 15 +32 +32 жарко 1011.3 985.6
08 19.03 Ю 5 н/о н/о +34.2 +5.7 17 +32 +32 жарко 1011.5 985.8
09 19.03 Ю 6 н/о н/о +33.4 +5.9 18 +31 +31 жарко 1011.9 986.2
10 19.03 Ю 5 н/о 5/0
[]
+32.3 +6.5 20 +30 +30 жарко 1012.3 986.6
11 19.03 Ю 3 н/о н/о +30.0 +6.0 22 +29 +29 жарко 1013.1 987.4
12 19.03 Ю 4 н/о н/о +28.8 +5.6 23 +28 +28 жарко 1013.5 987.8
13 19.03 Ю 4 н/о н/о +28.2 +5.7 24 +27 +27 жарко 1013.8 988.1 +36.1
14 19.03 Ю 4 н/о н/о +27.1 +5.4 25 +26 +26 жарко 1013.6 987.9
15 19.03 Ю 5 н/о н/о +27.1 +6.5 27 +26 +26 жарко 1013.2 987.5
16 19.03 Ю 5 н/о н/о +26.2 +7.3 30 +26 +26 жарко 1012.9 987.2
17 19.03 Ю 5 н/о н/о +25.2 +7.3 32 +25 +25 комфорт 1012.6 986.9
18 19.03 Ю 5 н/о н/о +24.2 +8.2 36 +25 +25 комфорт 1012.4 986.7
19 19.03 Ю 6 н/о н/о +23.6 +9.6 41 +25 +25 комфорт 1012.5 986.8
20 19.03 Ю 6 н/о н/о +22.8 +9.6 43 +24 +24 комфорт 1012.9 987.2
21 19.03 ЮВ 5 н/о н/о +22.1 +9.6 45 +24 +24 комфорт 1013.5 987.8
22 19.03 ЮВ 6 н/о н/о +22.8 +9.9 44 +25 +25 комфорт 1013.8 988.1
23 19.03 ЮВ 6 н/о н/о +25.4 +10.1 38 +26 +26 жарко 1014.4 988.6
00 20.03 ЮВ 4 н/о н/о +28.7 +9.9 31 +29 +29 жарко 1014.9 989.1
01 20.03 В 3 н/о н/о +30.7 +9.6 27 +30 +30 жарко 1015.0 989.2 +22.0
02 20.03 Ю 3 н/о н/о +32.2 +8.4 23 +31 +31 жарко 1014.6 988.8
03 20.03 Ю 4 н/о н/о +34.1 +8.0 20 +32 +32 жарко 1013.4 987.7
04 20.03 ЮЗ 4 н/о н/о +35.5 +8.3 19 +34 +34 очень
жарко
1012.5 986.8
05 20.03 Ю 7 н/о н/о +35.1 +7.2 18 +33 +33 жарко 1011.9 986.2
06 20.03 Ю 7 н/о н/о +36.3 +7.4 17 +34 +34 очень
жарко
1011.4 985.7
07 20.03 ЮЗ 7 н/о н/о +36.2 +7.3 17 +34 +34 очень
жарко
1011.2 985.5
08 20.03 ЮЗ 7 н/о н/о +35.0 +7.1 18 +33 +33 жарко 1011.5 985.8
09 20.03 Ю 7 н/о н/о +34.0 +7.1 19 +32 +32 жарко 1011.6 985.9
10 20.03 Ю 6 н/о н/о +32.7 +6.8 20 +31 +31 жарко 1012.1 986.4
11 20.03 Ю 5 н/о н/о +31.5 +5.8 20 +30 +30 жарко 1012.9 987.2
12 20.03 Ю 5 н/о н/о +30.1 +6.1 22 +29 +29 жарко 1013.5 987.8
13 20.03 Ю 4 н/о н/о +28.8 +5.6 23 +28 +28 жарко 1013.6 987.9 +36.8
14 20.03 Ю 4 н/о н/о +27.7 +5.9 25 +27 +27 жарко 1013.4 987.7
15 20.03 Ю 4 н/о н/о +26.2 +5.2 26 +25 +25 комфорт 1013.0 987.3
16 20.03 Ю 4 н/о н/о +25.9 +6.0 28 +25 +25 комфорт 1012.6 986.9
17 20.03 Ю 5 н/о н/о +24.9 +6.1 30 +25 +25 комфорт 1012.1 986.4
18 20.03 Ю 6 н/о н/о +24.0 +7.6 35 +24 +24 комфорт 1012.1 986.4
19 20.03 Ю 4 н/о н/о +23.1 +8.4 39 +24 +24 комфорт 1012.0 986.3
20 20.03 Ю 4 н/о н/о +22.2 +8.7 42 +24 +24 комфорт 1012.4 986.7
21 20.03 Ю 5 н/о н/о +21.6 +9.8 47 +23 +23 комфорт 1012.8 987.1
22 20.03 Ю 5 н/о н/о +22.5 +10.0 45 +24 +24 комфорт 1013.3 987.6
23 20.03 Ю 6 н/о н/о +24.5 +10.0 40 +25 +25 комфорт 1014.4 988.6
00 21.03 ЮВ 6 н/о н/о +26.8 +9.2 33 +27 +27 жарко 1014.6 988.8
01 21.03 ЮВ 5 н/о н/о +30.1 +9.6 28 +30 +30 жарко 1014.3 988.5 +21.5
02 21.03 Ю 5 н/о н/о +31.2 +7.6 23 +30 +30 жарко 1013.8 988.1
03 21.03 ЮЗ 5 н/о н/о +32.9 +8.4 22 +32 +32 жарко 1013.0 987.3
04 21.03 Ю 6 н/о н/о +34.1 +8.0 20 +32 +32 жарко 1011.9 986.2
05 21.03 ЮЗ 6 н/о н/о +35.2 +8.1 19 +33 +33 жарко 1011.1 985.4
06 21.03 ЮЗ 6 н/о н/о +35.6 +6.8 17 +33 +33 жарко 1010.5 984.8
07 21.03 Ю 8 н/о н/о +35.1 +3.6 14 +32 +32 жарко 1010.4 984.7
08 21.03 Ю 8 н/о н/о +34.6 -0.1 11 +31 +31 жарко 1010.8 985.1
09 21.03 Ю 7 н/о н/о +33.1 -0.1 12 +30 +30 жарко 1011.0 985.3
10 21.03 Ю 6 н/о н/о +31.6 -0.1 13 +28 +28 жарко 1011.8 986.1
11 21.03 Ю 4 н/о н/о +29.3 0.0 15 +27 +27 жарко 1012.7 987.0
12 21.03 Ю 4 н/о н/о +28.3 +0.9 17 +26 +26 жарко 1012.5 986.8
13 21.03 Ю 4 н/о н/о +27.1 +2.9 21 +26 +26 жарко 1012.5 986.8 +36.0
14 21.03 ЮВ 4 н/о н/о +26.1 +3.4 23 +25 +25 комфорт 1011.9 986.2
15 21.03 ЮВ 5 н/о н/о +25.5 +3.5 24 +25 +25 комфорт 1011.5 985.8
16 21.03 Ю 4 н/о н/о +24.5 +3.8 26 +24 +24 комфорт 1010.9 985.2
17 21.03 Ю 4 н/о н/о +23.4 +3.9 28 +23 +23 комфорт 1010.7 985.0
18 21.03 Ю 4 н/о н/о +22.6 +3.7 29 +23 +23 комфорт 1010.6 984.9
22 21.03 Ю 4 н/о н/о +22.8 +5.7 33 +23 +23 комфорт 1011.5 985.8
23 21.03 ЮВ 4 н/о н/о +26.0 +8.5 33 +26 +26 жарко 1011.7 986.0
01 22.03 В 3 н/о н/о +30.6 +7.1 23 +29 +29 жарко 1011.9 986.2 +21.3
02 22.03 СЗ 1 н/о н/о +33.3 +5.0 17 +31 +31 жарко 1011.4 985.7
03 22.03 В 2 н/о н/о +34.7 +5.2 16 +32 +32 жарко 1010.2 984.6
04 22.03 ЮЗ 3 н/о н/о +35.6 +5.0 15 +33 +33 жарко 1009.0 983.4
05 22.03 Ю 2 н/о н/о +36.6 +4.8 14 +34 +34 очень
жарко
1008.0 982.4
06 22.03 ЮЗ 3 н/о н/о +37.2 +5.3 14 +34 +34 очень
жарко
1007.3 981.7
07 22.03 Ю 3 н/о н/о +37.2 +5.3 14 +34 +34 очень
жарко
1007.3 981.7
08 22.03 Ю 4 н/о н/о +36.8 +4.9 14 +34 +34 очень
жарко
1007.5 981.9
09 22.03 ЮВ 4 н/о н/о +35.8 +5.1 15 +33 +33 жарко 1007.9 982.3
10 22.03 ЮВ 3 н/о н/о +34.2 +4.8 16 +32 +32 жарко 1008.5 982.9
11 22.03 ЮВ 3 н/о н/о +31.8 +4.6 18 +30 +30 жарко 1009.0 983.4
12 22.03 В 4 н/о н/о +30.4 +4.2 19 +28 +28 жарко 1009.2 983.6
13 22.03 В 4 н/о н/о +29.8 +4.4 20 +28 +28 жарко 1009.2 983.6 +38.2
14 22.03 В 4 н/о н/о +28.8 +4.3 21 +27 +27 жарко 1008.9 983.3
15 22.03 ЮВ 5 н/о н/о +28.1 +4.4 22 +27 +27 жарко 1008.7 983.1
16 22.03 ЮВ 5 н/о 10/0
[]
+28.0 +5.6 24 +27 +27 жарко 1008.7 983.1
17 22.03 ЮВ 5 н/о н/о +28.4 +5.3 23 +27 +27 жарко 1008.5 982.9
18 22.03 В 5 н/о н/о +28.5 +5.4 23 +27 +27 жарко 1008.2 982.6
19 22.03 В 5 н/о 10/0
[]
+28.0 +5.0 23 +27 +27 жарко 1008.3 982.7
20 22.03 В 4 н/о н/о +27.4 +5.1 24 +26 +26 жарко 1008.5 982.9
21 22.03 В 4 н/о н/о +27.3 +4.4 23 +26 +26 жарко 1008.3 982.7
22 22.03 В 4 н/о 10/0
[]
+27.6 +4.6 23 +26 +26 жарко 1009.0 983.4
23 22.03 В 6 н/о н/о +29.7 +4.4 20 +28 +28 жарко 1009.6 984.0
00 23.03 В 6 н/о н/о +31.5 +5.8 20 +30 +30 жарко 1010.1 984.5
01 23.03 В 7 н/о 9/0
[]
+32.4 +5.8 19 +30 +30 жарко 1009.8 984.2 +27.2
02 23.03 В 5 н/о н/о +35.3 +5.7 16 +33 +33 жарко 1009.8 984.2
03 23.03 В 4 н/о н/о +36.5 +4.7 14 +34 +34 очень
жарко
1008.7 983.1
04 23.03 ЮВ 5 н/о 5/0
[]
+38.3 +5.0 13 +35 +35 очень
жарко
1008.0 982.4
05 23.03 С 4 н/о н/о +37.5 +4.4 13 +35 +35 очень
жарко
1007.2 981.6
06 23.03 В 3 н/о н/о +37.3 +4.3 13 +34 +34 очень
жарко
1006.5 980.9
07 23.03 Ю 6 н/о 10/0
[]
+37.5 +4.4 13 +35 +35 очень
жарко
1006.4 980.8
08 23.03 Ю 11 н/о н/о +35.1 +4.6 15 +32 +32 жарко 1007.4 981.8
09 23.03 Ю 15 н/о н/о +30.8 +10.2 28 +31 +31 жарко 1007.8 982.2
10 23.03 Ю 14 н/о 6/0
[]
+28.8 +11.4 34 +29 +29 жарко 1008.8 983.2
11 23.03 Ю 13 н/о н/о +27.8 +10.5 34 +28 +28 жарко 1009.8 984.2
12 23.03 Ю 11 н/о н/о +27.4 +11.4 37 +28 +28 жарко 1010.8 985.1
13 23.03 ЮВ 10 н/о 6/0
[]
+26.9 +11.8 39 +28 +28 жарко 1011.0 985.3 +39.4
14 23.03 ЮВ 7 н/о н/о +26.5 +12.2 41 +28 +28 жарко 1010.8 985.1
15 23.03 В 8 н/о н/о +26.0 +12.5 43 +28 +28 жарко 1010.1 984.5
16 23.03 В 7 н/о 10/0
[]
+25.7 +12.2 43 +27 +27 жарко 1009.9 984.3
17 23.03 В 6 н/о н/о +25.7 +12.5 44 +27 +27 жарко 1009.3 983.7
18 23.03 ЮВ 7 н/о н/о +25.2 +12.8 46 +27 +27 жарко 1009.0 983.4
19 23.03 В 6 н/о 9/0
[]
+24.7 +13.9 51 +27 +27 жарко 1009.0 983.4
20 23.03 В 4 н/о н/о +25.1 +13.3 48 +27 +27 жарко 1009.8 984.2
21 23.03 Ю 5 н/о н/о +24.4 +14.2 53 +27 +27 жарко 1011.2 985.5
22 23.03 ЮВ 5 н/о 9/0
[]
+24.2 +14.9 56 +27 +27 жарко 1011.0 985.3
23 23.03 В 6 н/о н/о +25.8 +13.3 46 +28 +28 жарко 1010.7 985.0
00 24.03 В 7 н/о н/о +27.9 +12.7 39 +29 +29 жарко 1011.2 985.5
01 24.03 В 9 н/о 10/0
[]
+29.1 +12.1 35 +30 +30 жарко 1011.3 985.6 +24.1
02 24.03 В 7 н/о н/о +29.9 +12.3 34 +31 +31 жарко 1010.9 985.2
03 24.03 В 6 н/о н/о +31.0 +12.4 32 +32 +32 жарко 1010.0 984.4
04 24.03 ЮВ 5 н/о 10/0
[]
+31.5 +12.3 31 +32 +32 жарко 1009.3 983.7
05 24.03 ЮВ 7 н/о н/о +30.5 +12.4 33 +31 +31 жарко 1008.6 983.0
06 24.03 В 7 н/о н/о +30.6 +12.5 33 +31 +31 жарко 1007.6 982.0
07 24.03 СВ 6 н/о 9/0
[]
+30.9 +12.8 33 +32 +32 жарко 1007.0 981.4
08 24.03 В 5 н/о н/о +30.4 +13.2 35 +32 +32 жарко 1007.4 981.8
09 24.03 В 1 н/о н/о +30.0 +13.3 36 +31 +31 жарко 1008.2 982.6
10 24.03 Ю 9 н/о 10/0
[]
+27.6 +15.9 49 +31 +31 душно 1009.0 983.4
11 24.03 Ю 9 н/о н/о +26.4 +16.3 54 +30 +30 душно 1009.5 983.9
12 24.03 Ю 8 н/о н/о +25.9 +15.0 51 +29 +29 душно 1010.4 984.7
13 24.03 Ю 6 н/о 10/0
[]
+25.7 +14.8 51 +28 +28 жарко 1010.6 984.9 +32.0
14 24.03 Ю 10 н/о н/о +23.9 +14.3 55 +26 +26 жарко 1011.1 985.4
15 24.03 Ю 10 н/о н/о +22.5 +13.0 55 +25 +25 комфорт 1011.7 986.0
16 24.03 Ю 9 н/о 5/0
[]
+21.7 +12.5 56 +24 +24 комфорт 1012.3 986.6
17 24.03 Ю 10 н/о н/о +20.4 +13.8 66 +22 +22 комфорт 1012.7 987.0
18 24.03 Ю 8 н/о н/о +19.6 +12.8 65 +20 +20 1013.2 987.5
19 24.03 Ю 10 н/о 10/10 1500 м
[]
+19.2 +11.5 61 +19 +19 1013.4 987.7
20 24.03 Ю 8 н/о н/о +18.5 +12.5 68 +18 +18 1014.5 988.7
21 24.03 Ю 9 н/о н/о +17.7 +12.8 73 +17 +17 1015.5 989.7
22 24.03 Ю 9 н/о 6/6 300 м
[]
+17.8 +12.9 73 +17 +17 1015.9 990.1
23 24.03 Ю 9 н/о н/о +18.4 +11.7 65 +18 +18 1016.7 990.9

 

Местоположение метеостанции Кубер-Педи (Южная Австралия, Австралия): широта -29.03 долгота 134.71 высота над уровнем моря 226 м.

В архиве по умолчанию представлена погода в Кубер-Педи за последнюю неделю. Архивные данные за месяц целиком и за предыдущие месяцы, начиная с января 2011 года, Вы можете получить, выбрав интересующий диапазон дат из раскрывающегося списка и нажав кнопку "Ввод!".


*Определитесь, кто Вы:
робот инопланетянин человек

Внимание! Время в таблицах - всемирное. Для получения местного времени необходимо прибавить поправку, которая равна 9.5 ч.

Смотрите также архив погоды в соседних городах и на ближайших метеорологических станциях:

Погода в Однадатте (Южная Австралия, Австралия) (180 км)
Погода в Таркуле (Южная Австралия, Австралия) (188 км)
Погода в Олимпик Дэм (Южная Австралия, Австралия) (264 км)
Погода на Аэродроме Вумера (Южная Австралия, Австралия) (311 км)
Погода в Марри (Южная Австралия, Австралия) (332 км)
Погода в Сидуне (Южная Австралия, Австралия) (358 км)
Погода в Эрнабелле (Южная Австралия, Австралия) (395 км)
Погода в Ли-Крике (Южная Австралия, Австралия) (398 км)
Погода в Миннипа Пирса (Южная Австралия, Австралия) (427 км)
Погода в Уудинне (Южная Австралия, Австралия) (453 км)

Пояснения к столбцам:

Ветер - указаны скорость ветра в м/с - средняя за 10 мин, порывы в срок и между сроками (в фигурных скобках) и направление, откуда дует ветер: С - северный, СВ - северо-восточный, В - восточный, ЮВ - юго-восточный, Ю - южный, ЮЗ - юго-западный, З - западный, СЗ - северо-западный.
Видимость - горизонтальная дальность видимости в метрах или километрах. При видимости от 1 до 10 км при отсутствии осадков обычно наблюдается дымка, при ухудшении видимости до 1 км и менее - туман. В сухую погоду видимость может ухудшаться дымом, пылью или мглою.
Явления - указаны атмосферные явления, наблюдавшиеся в срок или в последний час перед сроком; фигурными скобками обозначены явления, наблюдавшиеся между сроками (за 1-3 часа до срока); квадратными скобками обозначены град или гололедные отложения с указанием их диаметра в мм.
Облачность - указаны через наклонную черту общая и нижняя облачность в баллах и высота нижней границы облаков в метрах; квадратными скобками обозначены формы облаков: Ci - перистые, Cs - перисто-слоистые, Cc - перисто-кучевые, Ac - высококучевые, As - высокослоистые, Sc - слоисто-кучевые, Ns - слоисто-дождевые, Cu - кучевые, Cb - кучево-дождевые. Подробнее классификацию облаков см. в Атласе облаков (PDF).
T - Температура воздуха - температура, измеренная на высоте 2 м над землей.
Td - Температура точки росы - температура, при понижении до которой содержащийся в воздухе водяной пар достигнет насыщения.
f - Относительная влажность воздуха - влажноcть воздуха, измеренная на высоте 2 м над землей.
Te - Эффективная температура - температура, которую ощущает одетый по сезону человек в тени. Характеристика душности погоды. При расчете учитывается влияние влажности воздуха и скорости ветра на теплоощущения человека.
Tes - Эффективная температура на солнце - температура, которую ощущает человек, с поправкой на солнечный нагрев. Характеристика знойности погоды. Зависит от высоты солнца над горизонтом, облачности и скорости ветра. Ночью, в пасмурную погоду, а также при ветре 12 м/с и более поправка равна нулю.
P - Атмосферное давление - приведенное к уровню моря атмосферное давление.
Po - Атмосферное давление - измеренное на уровне метеостанции атмосферное давление.
Tmin - Минимальная температура - минимум температуры воздуха на высоте 2 м над землей.
Tmax - Максимальная температура - максимум температуры воздуха на высоте 2 м над землей.
R - Количество осадков - Количество выпавших осадков за период времени, мм. При наведении курсора мыши на число - период времени, за который выпало указанное количество осадков.
R24 - Количество осадков - Количество выпавших осадков за 24 часа, мм.
S - Снежный покров - Высота снежного покрова, см. При наведении курсора мыши на число - состояние снежного покрова и степень покрытия местности в баллах.